Powrót do katalogu

WESTPAC

AktywnyŁącznośćSSO
NORAD 25398·PAYLOAD·🇦🇺 Australia

Wystrzelony Jul 10, 1998 z Baikonur Cosmodrome

Loading…

Następne Przeloty (najbliższe 24 godziny)

TLE

ŚwieżeSource: CelesTrak SupGP

Epoka: Sep 13, 2026, 00:00 UTC

1 25398C 98043E   26256.00000000  .00000075  00000+0  33309-4 0  2561
2 25398  99.0239 244.1654 0000900  11.4933 270.2092 14.23057127    12

Śledź WESTPAC w czasie rzeczywistym z AllMySat

Download on the App Store